Location: Winthrop
(48.4780°N, 120.1850°W)
Time: 15:46:47
(UTC-07:00)

Vanguard 3 - Pass Details

Date: 08 February 2023
Orbit: 508 x 3249 km, 33.3° (Epoch: 22 March)

Event Time Altitude Azimuth Distance (km) Brightness Sun altitude
Rises 17:41:12 0° 225° (SW) 3,557 11.7 -5.6°
Reaches altitude 10° 17:43:46 10° 212° (SSW) 2,906 10.8 -6.0°
Maximum altitude 17:49:44 27° 157° (SSE) 2,528 9.6 -6.9°
Drops below altitude 10° 17:58:51 10° 107° (ESE) 4,595 10.5 -8.4°
Enters shadow 18:01:28 - 102° (ESE) 5,336 10.7 -8.8°
